Location: Baia Mare
(47.6567°N, 23.5850°E)
Time: 19:41:08
(UTC+03:00)

ISS - Pass Details

Date: 12 February 2018
Orbit: 402 x 406 km, 51.6° (Epoch: 20 June)

Event Time Altitude Azimuth Distance (km) Brightness Sun altitude
Rises 19:28:45 0° 281° (WNW) 2,318 1.6 -18.2°
Reaches altitude 10° 19:32:04 10° 245° (WSW) 1,454 -0.1 -18.7°
Maximum altitude 19:33:06 11° 226° (SW) 1,383 -0.5 -18.9°
Drops below altitude 10° 19:34:08 10° 208° (SSW) 1,451 -0.7 -19.1°
Enters shadow 19:36:39 - 177° (S) 2,050 -0.3 -19.5°
